Danville, VA

2:01 AM EDT on August 21, 2017 (GMT -0400)
Danville Regional

Weather History for KDAN - May, 2012

Change the Weather History Date:

Wednesday, May 16, 2012

  Actual Average Record
Temperature  
Mean Temperature 71 °F 66 °F  
Max Temperature 82 °F 77 °F 89 °F (1952)
Min Temperature 60 °F 55 °F 38 °F (2016)
Degree Days  
Heating Degree Days 0 2  
Month to date heating degree days 27 50  
Since 1 July heating degree days 3278 3793  
Cooling Degree Days 6 3  
Month to date cooling degree days 59 40  
Year to date cooling degree days 87 74  
Growing Degree Days 20 (Base 50)    
Moisture  
Dew Point 60 °F    
Average Humidity 73    
Maximum Humidity 100    
Minimum Humidity 45    
Precipitation  
Precipitation 0.00 in 0.13 in 1.68 in (1992)
Month to date precipitation 1.50 1.88  
Year to date precipitation 11.92 15.88  
Snow  
Snow 0.00 in - - ()
Month to date snowfall 0.0  
Since 1 July snowfall 3.0  
Snow Depth 0.00 in    
Sea Level Pressure  
Sea Level Pressure 29.93 in    
Wind  
Wind Speed 2 mph (NW)    
Max Wind Speed 14 mph    
Max Gust Speed -    
Visibility 10 miles    
Events      
T = Trace of Precipitation, MM = Missing Value Source: NWS Daily Summary

Daily Weather History Graph

Daily Weather History Graph

Search for Another Location

Airport or City:

Trip Planner

Search our weather history database for the weather conditions in past years. The results will help you decide how hot, cold, wet, or windy it might be!

Date:

Astronomy

May. 16, 2012 Rise Set
Actual Time 6:09 AM EDT 8:18 PM EDT
Civil Twilight 5:40 AM EDT 8:47 PM EDT
Nautical Twilight 5:04 AM EDT 9:23 PM EDT
Astronomical Twilight 4:26 AM EDT 10:01 PM EDT
Moon 3:32 AM EDT (5/16) 4:37 PM EDT (5/16)
Length of Visible Light 15h 07m
Length of Day
14h 09m
Waning Crescent, 16% of the Moon is Illuminated
May 16
Waning Crescent
May 20
New
May 28
First Quarter
Jun 4
Full
Jun 11
Last Quarter

Hourly Weather History & Observations

Time (EDT) Temp. Heat Index Dew Point Humidity Pressure Visibility Wind Dir Wind Speed Gust Speed Precip Events Conditions
12:53 AM 62.1 °F - 62.1 °F 100% 29.95 in 8.0 mi Calm Calm - N/A   Scattered Clouds
1:53 AM 61.0 °F - 61.0 °F 100% 29.94 in 6.0 mi Calm Calm - N/A   Clear
2:53 AM 61.0 °F - 60.1 °F 97% 29.92 in 8.0 mi Calm Calm - N/A   Partly Cloudy
3:53 AM 61.0 °F - 60.1 °F 97% 29.94 in 8.0 mi Calm Calm - N/A   Mostly Cloudy
4:53 AM 61.0 °F - 60.1 °F 97% 29.93 in 10.0 mi Calm Calm - N/A   Clear
5:53 AM 60.1 °F - 59.0 °F 96% 29.92 in 10.0 mi Calm Calm - N/A   Partly Cloudy
6:53 AM 61.0 °F - 60.1 °F 97% 29.95 in 10.0 mi SW 4.6 mph - N/A   Mostly Cloudy
7:53 AM 62.1 °F - 61.0 °F 96% 29.96 in 10.0 mi WSW 3.5 mph - N/A   Partly Cloudy
8:53 AM 64.9 °F - 62.1 °F 90% 29.96 in 10.0 mi Calm Calm - N/A   Clear
9:53 AM 70.0 °F - 63.0 °F 78% 29.96 in 10.0 mi NW 3.5 mph - N/A   Clear
10:53 AM 73.9 °F - 62.1 °F 66% 29.96 in 10.0 mi Calm Calm - N/A   Clear
11:53 AM 75.9 °F - 62.1 °F 62% 29.96 in 10.0 mi NW 4.6 mph - N/A   Scattered Clouds
12:53 PM 75.0 °F - 60.1 °F 60% 29.95 in 10.0 mi NW 3.5 mph - N/A   Mostly Cloudy
1:53 PM 78.1 °F - 61.0 °F 56% 29.92 in 10.0 mi Variable 3.5 mph - N/A   Clear
2:53 PM 80.1 °F 80.9 °F 60.1 °F 50% 29.90 in 10.0 mi WNW 5.8 mph - N/A   Partly Cloudy
3:53 PM 80.1 °F 80.4 °F 57.0 °F 45% 29.89 in 10.0 mi Calm Calm - N/A   Clear
4:53 PM 80.1 °F 80.7 °F 59.0 °F 48% 29.87 in 10.0 mi Variable 3.5 mph - N/A   Scattered Clouds
5:53 PM 79.0 °F - 59.0 °F 50% 29.88 in 10.0 mi Variable 4.6 mph - N/A   Partly Cloudy
6:53 PM 79.0 °F - 60.1 °F 52% 29.88 in 10.0 mi NNE 4.6 mph - N/A   Clear
7:53 PM 75.0 °F - 57.9 °F 55% 29.90 in 10.0 mi NNE 3.5 mph - N/A   Clear
8:53 PM 64.9 °F - 61.0 °F 87% 29.91 in 10.0 mi Calm Calm - N/A   Clear
9:53 PM 64.9 °F - 61.0 °F 87% 29.92 in 10.0 mi Calm Calm - N/A   Clear
10:53 PM 63.0 °F - 61.0 °F 93% 29.94 in 10.0 mi Calm Calm - N/A   Clear
11:53 PM 62.1 °F - 61.0 °F 96% 29.93 in 8.0 mi Calm Calm - N/A   Clear